FOX-1D (AO-92) (43137 NORAD) Tracking and Keplerian Element Data

This shows tracking and keplerian element data for the satellite.

Feedback or suggestion? Click here.




ElementValue
Catalog43137
NameFOX-1D (AO-92)
Epoch Orbit4733
Epoch Day323.43079145
Epoch Year2018
RAAN26.427
Inclination97.5162
Eccentricity0.0007832
Argument of Perigee278.4787
Mean Anonmoly81.5561
Mean Motion15.23031666
Decay Rate1.081E-05
L11 43137U 18004AC 18323.43079145 .00001081 00000-0 48979-4 0 9992
L22 43137 97.5162 26.4270 0007832 278.4787 81.5561 15.23031666 47330

Live tracking and technical data element details for FOX-1D (AO-92) (NORAD 43137). FOX-1D (AO-92) can be tracked NOW for your location showing map with azimuth and elevation plus other details from your city location.

Track the satellite on the map from your city or location and see movement details for azimuth, elevation, latitude, longitude, range, height, and movement on the map or in text.







IsCatalogInMostPopularTable: catalog: 43137, numindb: 674
Update: records affected: 1



GetName: 43137 FOX-1D (AO-92)

Hit Count: updated at: Wed, 21 Nov 2018 05:25:12 GMT